Current Version              Previous Version:    01  02  03  04  05  06  07  08  09  10  11  12  13  14  15  16  17  18  19  20  21  22  23  24  25  26  27  28  29  30  
   31  32  33  34  35  36  37  38  39  40  41  42  43  44  45  46  47  48  49  50  51  52  53  54  55  56  57  58  59  60  

[Printable]
571
ASUS44 KEWX 301510
RWRTX
SOUTH TEXAS REGIONAL WEATHER ROUNDUP
NATIONAL WEATHER SERVICE AUSTIN/SAN ANTONIO TX
1000 AM CDT SAT AUG 30 2014

NOTE: "FAIR" INDICATED FEW OR NO CLOUDS BELOW 12,000 FEET WITH NO
SIGNIFICANT WEATHER AND/OR OBSTRUCTIONS TO VISIBILITY.

* - THESE STATIONS ARE NOT NWS OR FAA STATIONS...AND ARE NOT SUBJECT
    TO NWS AND FAA QUALITY CONTROL.

TXZ171-172-183>190-301600-
TEXAS HILL COUNTRY AND EDWARDS PLATEAU

CITY           SKY/WX    TMP DP  RH WIND       PRES   REMARKS
JUNCTION       SUNNY     81  70  69 W6        30.00S
*LLANO         SUNNY     82  72  69 SW3       30.01R
BURNET         MOSUNNY   80  72  76 CALM      30.00S
*HORSESHOE BAY PTSUNNY   80  71  74 CALM      29.98R
*KERRVILLE     SUNNY     79  71  75 CALM      29.99R
*FREDERICKSBRG SUNNY     80  68  67 W3        29.99S
*ROCKSPRINGS   SUNNY     81  70  69 CALM      30.05R
*BOERNE STAGE  SUNNY     81  68  65 CALM      30.00R
*CASTROVILLE   SUNNY     84  68  57 SE5       29.97S
HONDO          SUNNY     82  71  69 MISG      29.98R
*UVALDE        SUNNY     81  72  73 E3        29.96S
DEL RIO        SUNNY     84  71  65 SE6       29.94S
LAUGHLIN AFB   SUNNY     83  71  68 E7        29.96R
CARRIZO SPRGS  MOSUNNY   81  73  78 CALM      29.93S
$$

TXZ173-191>194-202-209-217>225-228-301600-
CENTRAL AND SOUTH CENTRAL TEXAS

CITY           SKY/WX    TMP DP  RH WIND       PRES   REMARKS
GEORGETOWN     CLOUDY    81  73  78 CALM      29.98S
AUSTIN/BERGSTM PTSUNNY   81  73  76 VRB3      29.96R
AUSTIN/MABRY   CLOUDY    80  73  79 CALM      29.97R
*AUSTIN/EXEC   CLOUDY    81  73  78 CALM      29.97R
*LAGO VISTA    PTSUNNY   79  71  75 CALM      29.99R
SAN MARCOS     PTSUNNY   81  72  74 CALM        N/A
NEW BRAUNFELS  MOSUNNY   84  72  67 NE3       29.95S
RANDOLPH AFB   MOSUNNY   81  71  71 CALM      29.97R
PT SAN ANTONIO MOSUNNY   84  71  64 SE6       29.95R
SAN ANTONIO    PTSUNNY   83  73  72 E5        29.97R
STINSON FIELD  MOSUNNY   84  72  67 E3        29.94R
*PLEASANTON    MOSUNNY   83  73  71 NE3       29.95S
*LA GRANGE     CLOUDY    80  74  83 N3        29.94S
*GIDDINGS      CLOUDY    79  71  78 NE5       30.00S
*GONZALES      PTSUNNY   78  75  90 E5        29.96R
$$

TXZ163>164-176>182-195>201-210>213-226-227-235-301600-
SOUTHEAST TEXAS

CITY           SKY/WX    TMP DP  RH WIND       PRES   REMARKS
COLLEGE STN    CLOUDY    79  72  79 VRB5      29.96S
*BRYAN         CLOUDY   N/A N/A N/A CALM      29.96R
*CALDWELL      CLOUDY    75  72  88 CALM      30.00R
*CROCKETT      CLOUDY    81  75  83 E3        30.00R
*BRENHAM       CLOUDY    79  74  85 CALM      29.97R
HUNTSVILLE     PTSUNNY   82  72  71 N5        29.97R
CONROE         PTSUNNY   79  73  82 NW5       29.96R
HOUSTON BUSH   PTSUNNY   81  73  78 N3        29.94R
HOUSTON HOBBY  PTSUNNY   82  75  79 W6        29.94R
*HOUSTON SW AP PTSUNNY   81  80  96 W5        29.95R HX  90
PEARLAND       PTSUNNY   81  75  82 NW5       29.95R
HOUSTON HOOKS  PTSUNNY   82  74  76 W5        29.94S
ELLINGTON FLD  NOT AVBL
SUGAR LAND     PTSUNNY   81  76  84 NW5       29.94R
*HOUSTON EXEC  PTSUNNY   79  79 100 CALM      29.96R
*CLEVELAND MUN CLOUDY    77  74  92 CALM      29.96R
*WHARTON       CLOUDY    76  75  97 CALM      29.96R
$$

TXZ214>216-236>238-301600-
THE UPPER TEXAS COAST

CITY           SKY/WX    TMP DP  RH WIND       PRES   REMARKS
*ORANGE        TSTM      74  74 100 NE5       29.97R
PORT ARTHUR    LGT RAIN  76  74  93 E6        29.95R
GALVESTON      PTSUNNY   80  77  90 SW6       29.96R
ANGLETON       CLOUDY    79  76  90 CALM      29.95R
*BAY CITY      CLOUDY    80  80 100 CALM      29.95R
PALACIOS       CLOUDY    81  75  82 CALM      29.93R
$$

TXZ229>234-239>247-301600-
TEXAS COASTAL BEND AND RIO GRANDE PLAINS

CITY           SKY/WX    TMP DP  RH WIND       PRES   REMARKS
VICTORIA       CLOUDY    83  75  77 NE5       29.94S HX  90
*BEEVILLE      CLOUDY    77  77  99 SE7       29.95R
ROCKPORT       CLOUDY    78  75  90 SW6       29.93S
*PORT ARANSAS  CLOUDY    78  75  90 SW6       29.93F
*PORT LAVACA   CLOUDY    80  75  85 SW6       29.93S
*INGLESIDE     DRIZZLE   79  76  91 S5        29.93F
CORPUS CHRISTI CLOUDY    77  74  90 SE6       29.94R
CORPUS NAS     NOT AVBL
*ROBSTOWN      CLOUDY    78  75  92 S6        29.94S
ALICE          PTSUNNY   77  74  90 S10       29.94R
KINGSVILLE NAS CLOUDY    77  77 100 SW6       29.94S
COTULLA        MOSUNNY   84  73  69 E7        29.94R HX  90
*FAITH RANCH   MOSUNNY   79  72  78 E6        29.95R
LAREDO         MOSUNNY   84  75  74 E6        29.95R HX  91
$$

TXZ248>255-301600-
DEEP SOUTH TEXAS

CITY           SKY/WX    TMP DP  RH WIND       PRES   REMARKS
BROWNSVILLE    CLOUDY    79  77  94 SE7       29.90R
PORT ISABEL    CLOUDY    80  75  84 CALM      29.91R
*SOUTH PADRE     N/A     77  75  94 CALM      29.91R
HARLINGEN      CLOUDY    80  75  84 CALM      29.90R
*HEBBRONVILLE  PTSUNNY   79  74  86 E9        29.95R
MCALLEN        PTSUNNY   79  76  90 E7        29.91R
*WESLACO       NOT AVBL
FALFURRIAS     CLOUDY    66  63  90 SE6       29.93S
EDINBURG       CLOUDY    81  75  83 E9        29.93R
*ZAPATA        CLOUDY    85  73  65 CALM      29.91R HX  91
$$

TXZ213>215-236>238-242>244-246-247-251-254-255-301600-
CMAN STATIONS

STATION/POSITION TIME  TEMP    WIND        PRES    WAVE
                       AIR SEA DIR/SP/G            HT/PER
                 (UTC) (F)     (DEG/KT/KT) (MB)    (FT/S)
SABINE PASS      1500   80 83  200/ 10/ 16 1014.1
SEA RIM ST PARK  1500   73     310/  5/  6 1015.2
NORTH JETTY/GLS  1500   80 83  290/ 12/ 14   N/A
EAGLE POINT      1500   79 82  260/  4/  6 1013.9
MORGANS POINT    1500   81        CALM     1013.6
MISSION/ARANSAS  1400   76     190/  6     1015.0
PORT O`CONNOR    1500          240/  7/ 11   N/A
PORT ARANSAS     1500   79 83  200/ 12/ 14 1014.1
MALAQUITE BEACH  1500   78 83  150/ 15/ 17 1012.4
BAFFIN BAY       1500   76 80  200/ 10/ 11 1013.2
PORT ISABEL      1500   76 82     CALM     1013.0
$$

GMZ080-GMZ150>470-301600-
OFFSHORE BUOY REPORTS

STATION/POSITION TIME  TEMP    WIND        PRES    WAVE
                       AIR SEA DIR/SP/G            HT/PER
                 (UTC) (F)     (DEG/KT/KT) (MB)    (FT/S)
20 E GALVESTON   1500   83 85  240/ 12/ 14 1013.8    4/ 7
90 E PT ARANSAS  1500   76 85  230/  8/ 12 1014.5    4/ 7
35 NE PT MANSFLD 1500   78 85  270/  8/ 10 1012.4    3/ 7
200 E PT ISABEL  1500   84 86  160/ 16/ 21 1013.1    5/ 7
$$